• In Belarus
  • List of Countries
  • For 7 days
  • Water Temperature
  • Satellite Maps
  • Weather Map
  • Weather Widgets
  • user-avatar
    Login

    Hourly Weather Schetkino

    Today, 23 March, Saturday

    Time Temperature Precipitation Wind Pressure Humidity
    00:00 -3°C° 0 mm 6 mps 749 mmHg 77%
    01:00 -2°C° 0 mm 6 mps 749 mmHg 77%
    02:00 -2°C° 0 mm 6 mps 750 mmHg 78%
    03:00 -1°C° 0 mm 5 mps 750 mmHg 79%
    04:00 -2°C° 0 mm 5 mps 750 mmHg 80%
    05:00 -2°C° 0 mm 5 mps 751 mmHg 81%
    06:00 -2°C° 0 mm 5 mps 751 mmHg 81%
    07:00 -1°C° 0 mm 5 mps 751 mmHg 81%
    08:00 -1°C° 0 mm 5 mps 752 mmHg 81%
    09:00 0°C° 0 mm 4 mps 752 mmHg 79%
    10:00 +1°C° 0 mm 3 mps 752 mmHg 77%
    11:00 +2°C° 0 mm 3 mps 752 mmHg 75%
    12:00 +4°C° 0 mm 2 mps 752 mmHg 72%
    13:00 +4°C° 0 mm 2 mps 752 mmHg 70%
    14:00 +6°C° 0 mm 1 mps 752 mmHg 67%
    15:00 +5°C° 0 mm 1 mps 752 mmHg 69%
    16:00 +5°C° 0 mm 1 mps 752 mmHg 71%
    17:00 +4°C° 0 mm 0 mps 751 mmHg 73%
    18:00 +4°C° 0 mm 1 mps 751 mmHg 77%
    19:00 +3°C° 0 mm 1 mps 751 mmHg 80%
    20:00 +1°C° 0 mm 2 mps 751 mmHg 84%
    21:00 +1°C° 0 mm 2 mps 750 mmHg 84%
    22:00 0°C° 0 mm 3 mps 749 mmHg 84%
    23:00 0°C° 0 mm 3 mps 749 mmHg 84%

    Tomorrow, 24 March, Sunday

    Time Temperature Precipitation Wind Pressure Humidity
    00:00 0°C° 0.1 mm 3 mps 748 mmHg 81%
    01:00 +1°C° 0.1 mm 3 mps 748 mmHg 78%
    02:00 0°C° 0.1 mm 4 mps 747 mmHg 75%
    03:00 0°C° 0.5 mm 4 mps 746 mmHg 77%
    04:00 +1°C° 0.5 mm 3 mps 746 mmHg 80%
    05:00 +1°C° 0.5 mm 3 mps 745 mmHg 82%
    06:00 +1°C° 0 mm 3 mps 745 mmHg 83%
    07:00 +2°C° 0 mm 3 mps 745 mmHg 85%
    08:00 +1°C° 0 mm 4 mps 745 mmHg 87%
    09:00 +3°C° 0 mm 4 mps 745 mmHg 78%
    10:00 +4°C° 0 mm 4 mps 745 mmHg 70%
    11:00 +5°C° 0 mm 5 mps 745 mmHg 62%
    12:00 +5°C° 0 mm 5 mps 745 mmHg 58%
    13:00 +5°C° 0 mm 5 mps 745 mmHg 53%
    14:00 +6°C° 0 mm 5 mps 745 mmHg 49%
    15:00 +5°C° 0 mm 4 mps 745 mmHg 51%
    16:00 +5°C° 0 mm 3 mps 745 mmHg 54%
    17:00 +4°C° 0 mm 3 mps 745 mmHg 56%
    18:00 +4°C° 0 mm 2 mps 745 mmHg 61%
    19:00 +3°C° 0 mm 2 mps 745 mmHg 66%
    20:00 +2°C° 0 mm 2 mps 745 mmHg 70%
    21:00 +1°C° 0 mm 2 mps 745 mmHg 72%
    22:00 +1°C° 0 mm 2 mps 745 mmHg 74%
    23:00 -1°C° 0 mm 2 mps 744 mmHg 76%

    Day after tomorrow, 25 March, Monday

    Time Temperature Precipitation Wind Pressure Humidity
    00:00 -1°C° 0 mm 2 mps 744 mmHg 77%
    01:00 -1°C° 0 mm 2 mps 744 mmHg 78%
    02:00 -2°C° 0 mm 2 mps 744 mmHg 79%
    03:00 -2°C° 0 mm 2 mps 744 mmHg 79%
    04:00 -2°C° 0 mm 2 mps 743 mmHg 78%
    05:00 -2°C° 0 mm 2 mps 743 mmHg 78%
    06:00 -1°C° 0 mm 2 mps 743 mmHg 74%
    07:00 +1°C° 0 mm 2 mps 743 mmHg 71%
    08:00 +2°C° 0 mm 2 mps 743 mmHg 68%
    09:00 +3°C° 0 mm 2 mps 742 mmHg 62%
    10:00 +4°C° 0 mm 2 mps 742 mmHg 56%
    11:00 +4°C° 0 mm 3 mps 742 mmHg 51%
    12:00 +6°C° 0 mm 2 mps 742 mmHg 50%
    13:00 +6°C° 0 mm 2 mps 742 mmHg 49%
    14:00 +6°C° 0 mm 2 mps 741 mmHg 48%
    15:00 +5°C° 0.2 mm 2 mps 741 mmHg 54%
    16:00 +6°C° 0.2 mm 1 mps 741 mmHg 59%
    17:00 +5°C° 0.2 mm 1 mps 741 mmHg 65%
    18:00 +4°C° 0 mm 1 mps 741 mmHg 69%
    19:00 +3°C° 0 mm 1 mps 741 mmHg 73%
    20:00 +2°C° 0 mm 1 mps 741 mmHg 77%
    21:00 +1°C° 0 mm 1 mps 741 mmHg 78%
    22:00 +1°C° 0 mm 1 mps 741 mmHg 79%
    23:00 +1°C° 0 mm 1 mps 741 mmHg 80%

    26 March, Tuesday

    Time Temperature Precipitation Wind Pressure Humidity
    00:00 +1°C° 0 mm 1 mps 742 mmHg 81%
    01:00 0°C° 0 mm 1 mps 742 mmHg 82%
    02:00 0°C° 0 mm 1 mps 742 mmHg 83%
    03:00 0°C° 0 mm 1 mps 742 mmHg 85%
    04:00 0°C° 0 mm 1 mps 742 mmHg 88%
    05:00 0°C° 0 mm 1 mps 742 mmHg 91%
    06:00 -1°C° 0 mm 2 mps 742 mmHg 88%
    07:00 +1°C° 0 mm 2 mps 742 mmHg 85%
    08:00 +2°C° 0 mm 2 mps 742 mmHg 82%
    09:00 +1°C° 0.2 mm 3 mps 742 mmHg 80%
    10:00 +1°C° 0.2 mm 4 mps 742 mmHg 77%
    11:00 +3°C° 0.2 mm 4 mps 742 mmHg 74%
    12:00 +1°C° 0.3 mm 4 mps 742 mmHg 71%
    13:00 +1°C° 0.3 mm 4 mps 743 mmHg 69%
    14:00 0°C° 0.3 mm 4 mps 743 mmHg 66%
    15:00 0°C° 0.1 mm 4 mps 743 mmHg 63%
    16:00 0°C° 0.1 mm 4 mps 743 mmHg 60%
    17:00 0°C° 0.1 mm 4 mps 743 mmHg 57%
    18:00 0°C° 0 mm 3 mps 743 mmHg 62%
    19:00 -1°C° 0 mm 3 mps 743 mmHg 68%
    20:00 -1°C° 0 mm 3 mps 743 mmHg 73%
    21:00 -2°C° 0.6 mm 3 mps 743 mmHg 73%
    22:00 -3°C° 0.6 mm 4 mps 743 mmHg 73%
    23:00 -4°C° 0.6 mm 5 mps 743 mmHg 73%

    27 March, Wednesday

    Time Temperature Precipitation Wind Pressure Humidity
    00:00 -5°C° 0 mm 5 mps 743 mmHg 75%
    01:00 -6°C° 0 mm 5 mps 743 mmHg 77%
    02:00 -7°C° 0 mm 4 mps 744 mmHg 79%
    03:00 -5°C° 0 mm 4 mps 744 mmHg 80%
    04:00 -5°C° 0 mm 4 mps 745 mmHg 82%
    05:00 -4°C° 0 mm 3 mps 746 mmHg 84%
    06:00 -4°C° 0 mm 3 mps 747 mmHg 82%
    07:00 -2°C° 0 mm 3 mps 747 mmHg 80%
    08:00 -3°C° 0 mm 4 mps 748 mmHg 78%
    09:00 -2°C° 0 mm 4 mps 748 mmHg 73%
    10:00 -1°C° 0 mm 4 mps 749 mmHg 68%
    11:00 0°C° 0 mm 4 mps 749 mmHg 64%
    12:00 0°C° 0 mm 4 mps 749 mmHg 62%
    13:00 +1°C° 0 mm 4 mps 749 mmHg 60%
    14:00 +1°C° 0 mm 4 mps 750 mmHg 57%
    15:00 +1°C° 0.1 mm 4 mps 750 mmHg 59%
    16:00 0°C° 0.1 mm 4 mps 750 mmHg 61%
    17:00 +1°C° 0.1 mm 3 mps 750 mmHg 62%
    18:00 0°C° 0 mm 3 mps 751 mmHg 68%
    19:00 -2°C° 0 mm 2 mps 751 mmHg 73%
    20:00 -3°C° 0 mm 2 mps 752 mmHg 78%
    21:00 -3°C° 0 mm 2 mps 752 mmHg 79%
    22:00 -4°C° 0 mm 2 mps 753 mmHg 80%
    23:00 -4°C° 0 mm 2 mps 753 mmHg 81%

    28 March, Thursday

    Time Temperature Precipitation Wind Pressure Humidity
    00:00 -4°C° 0 mm 2 mps 754 mmHg 82%
    01:00 -4°C° 0 mm 2 mps 754 mmHg 83%
    02:00 -4°C° 0 mm 2 mps 755 mmHg 84%
    03:00 -5°C° 0 mm 2 mps 755 mmHg 83%
    04:00 -5°C° 0 mm 2 mps 755 mmHg 82%
    05:00 -5°C° 0 mm 2 mps 756 mmHg 82%
    06:00 -4°C° 0 mm 2 mps 756 mmHg 72%
    07:00 -3°C° 0 mm 2 mps 757 mmHg 62%
    08:00 -2°C° 0 mm 2 mps 757 mmHg 53%
    09:00 -1°C° 0 mm 3 mps 757 mmHg 47%
    10:00 0°C° 0 mm 3 mps 758 mmHg 41%
    11:00 +1°C° 0 mm 3 mps 758 mmHg 36%
    12:00 +2°C° 0 mm 3 mps 758 mmHg 36%
    13:00 +2°C° 0 mm 3 mps 758 mmHg 36%
    14:00 +3°C° 0 mm 3 mps 758 mmHg 36%
    15:00 +4°C° 0 mm 2 mps 758 mmHg 42%
    16:00 +3°C° 0 mm 2 mps 758 mmHg 48%
    17:00 +3°C° 0 mm 2 mps 757 mmHg 53%
    18:00 +2°C° 0 mm 2 mps 757 mmHg 58%
    19:00 +1°C° 0 mm 2 mps 758 mmHg 64%
    20:00 -1°C° 0 mm 2 mps 758 mmHg 69%
    21:00 -1°C° 0 mm 2 mps 757 mmHg 73%
    22:00 -1°C° 0 mm 2 mps 757 mmHg 77%
    23:00 -1°C° 0 mm 2 mps 757 mmHg 82%
    Show more